Hourly Weather Paxtaobod

Today, 17 April, Saturday

Time Temperature Precipitation Wind Pressure Humidity
00:00 +18°C° 0 mm 2 mps 734 mmHg 32%
01:00 +17°C° 0 mm 2 mps 734 mmHg 31%
02:00 +18°C° 0 mm 1 mps 734 mmHg 31%
03:00 +18°C° 0 mm 1 mps 734 mmHg 31%
04:00 +16°C° 0 mm 1 mps 734 mmHg 31%
05:00 +16°C° 0 mm 1 mps 734 mmHg 31%
06:00 +18°C° 0 mm 1 mps 734 mmHg 30%
07:00 +19°C° 0 mm 1 mps 735 mmHg 30%
08:00 +21°C° 0 mm 1 mps 735 mmHg 29%
09:00 +22°C° 0 mm 1 mps 735 mmHg 27%
10:00 +23°C° 0 mm 2 mps 735 mmHg 25%
11:00 +25°C° 0 mm 2 mps 735 mmHg 23%
12:00 +25°C° 0 mm 2 mps 735 mmHg 22%
13:00 +26°C° 0 mm 2 mps 735 mmHg 21%
14:00 +27°C° 0 mm 3 mps 735 mmHg 21%
15:00 +26°C° 0 mm 3 mps 735 mmHg 22%
16:00 +26°C° 0 mm 3 mps 735 mmHg 23%
17:00 +26°C° 0 mm 3 mps 734 mmHg 25%
18:00 +24°C° 0 mm 2 mps 735 mmHg 27%
19:00 +23°C° 0 mm 2 mps 735 mmHg 30%
20:00 +21°C° 0 mm 1 mps 735 mmHg 32%
21:00 +21°C° 0 mm 1 mps 735 mmHg 32%
22:00 +20°C° 0 mm 2 mps 735 mmHg 32%
23:00 +20°C° 0 mm 2 mps 735 mmHg 32%

Tomorrow, 18 April, Sunday

Time Temperature Precipitation Wind Pressure Humidity
00:00 +19°C° 0 mm 2 mps 735 mmHg 33%
01:00 +19°C° 0 mm 2 mps 735 mmHg 33%
02:00 +19°C° 0 mm 2 mps 735 mmHg 34%
03:00 +19°C° 0 mm 2 mps 735 mmHg 34%
04:00 +18°C° 0 mm 2 mps 735 mmHg 34%
05:00 +18°C° 0 mm 2 mps 735 mmHg 34%
06:00 +19°C° 0 mm 2 mps 736 mmHg 34%
07:00 +20°C° 0 mm 2 mps 736 mmHg 34%
08:00 +21°C° 0 mm 1 mps 737 mmHg 34%
09:00 +23°C° 0 mm 1 mps 737 mmHg 30%
10:00 +24°C° 0 mm 1 mps 737 mmHg 26%
11:00 +26°C° 0 mm 1 mps 737 mmHg 22%
12:00 +26°C° 0 mm 2 mps 737 mmHg 20%
13:00 +27°C° 0 mm 2 mps 737 mmHg 19%
14:00 +27°C° 0 mm 2 mps 736 mmHg 17%
15:00 +27°C° 0 mm 2 mps 736 mmHg 17%
16:00 +27°C° 0 mm 2 mps 736 mmHg 17%
17:00 +27°C° 0 mm 2 mps 736 mmHg 18%
18:00 +26°C° 0 mm 2 mps 736 mmHg 21%
19:00 +24°C° 0 mm 2 mps 736 mmHg 24%
20:00 +21°C° 0 mm 2 mps 736 mmHg 27%
21:00 +20°C° 0 mm 2 mps 736 mmHg 29%
22:00 +20°C° 0 mm 2 mps 735 mmHg 31%
23:00 +19°C° 0 mm 2 mps 735 mmHg 33%

Day after tomorrow, 19 April, Monday

Time Temperature Precipitation Wind Pressure Humidity
00:00 +20°C° 0 mm 1 mps 735 mmHg 33%
01:00 +19°C° 0 mm 1 mps 735 mmHg 34%
02:00 +19°C° 0 mm 1 mps 734 mmHg 34%
03:00 +19°C° 0 mm 1 mps 734 mmHg 35%
04:00 +18°C° 0 mm 1 mps 734 mmHg 36%
05:00 +18°C° 0 mm 1 mps 734 mmHg 36%
06:00 +19°C° 0 mm 1 mps 734 mmHg 35%
07:00 +18°C° 0 mm 0 mps 734 mmHg 33%
08:00 +20°C° 0 mm 0 mps 734 mmHg 32%
09:00 +23°C° 0 mm 1 mps 734 mmHg 30%
10:00 +24°C° 0 mm 1 mps 734 mmHg 27%
11:00 +25°C° 0 mm 2 mps 734 mmHg 25%
12:00 +26°C° 0 mm 2 mps 734 mmHg 24%
13:00 +26°C° 0 mm 2 mps 733 mmHg 23%
14:00 +27°C° 0 mm 2 mps 733 mmHg 21%
15:00 +27°C° 0 mm 2 mps 733 mmHg 22%
16:00 +27°C° 0 mm 2 mps 732 mmHg 22%
17:00 +27°C° 0 mm 2 mps 732 mmHg 23%
18:00 +25°C° 0 mm 2 mps 732 mmHg 26%
19:00 +23°C° 0 mm 2 mps 732 mmHg 29%
20:00 +21°C° 0 mm 2 mps 732 mmHg 33%
21:00 +20°C° 0 mm 2 mps 731 mmHg 34%
22:00 +20°C° 0 mm 1 mps 731 mmHg 36%
23:00 +20°C° 0 mm 1 mps 731 mmHg 37%

20 April, Tuesday

Time Temperature Precipitation Wind Pressure Humidity
00:00 +19°C° 0 mm 1 mps 731 mmHg 38%
01:00 +19°C° 0 mm 1 mps 731 mmHg 39%
02:00 +18°C° 0 mm 1 mps 730 mmHg 40%
03:00 +18°C° 0 mm 1 mps 730 mmHg 40%
04:00 +18°C° 0 mm 1 mps 730 mmHg 41%
05:00 +16°C° 0 mm 0 mps 730 mmHg 41%
06:00 +17°C° 0 mm 0 mps 730 mmHg 39%
07:00 +18°C° 0 mm 0 mps 731 mmHg 37%
08:00 +21°C° 0 mm 1 mps 731 mmHg 34%
09:00 +23°C° 0 mm 1 mps 731 mmHg 32%
10:00 +24°C° 0 mm 1 mps 731 mmHg 29%
11:00 +26°C° 0 mm 1 mps 731 mmHg 26%
12:00 +26°C° 0 mm 3 mps 731 mmHg 28%
13:00 +25°C° 0 mm 5 mps 731 mmHg 29%
14:00 +24°C° 0 mm 7 mps 731 mmHg 31%
15:00 +24°C° 0 mm 6 mps 731 mmHg 32%
16:00 +23°C° 0 mm 5 mps 731 mmHg 34%
17:00 +23°C° 0 mm 4 mps 731 mmHg 36%
18:00 +21°C° 0 mm 3 mps 731 mmHg 43%
19:00 +19°C° 0 mm 3 mps 732 mmHg 49%
20:00 +18°C° 0 mm 2 mps 732 mmHg 56%
21:00 +17°C° 0 mm 2 mps 732 mmHg 58%
22:00 +17°C° 0 mm 2 mps 732 mmHg 60%
23:00 +17°C° 0 mm 2 mps 732 mmHg 62%

21 April, Wednesday

Time Temperature Precipitation Wind Pressure Humidity
00:00 +16°C° 0.1 mm 1 mps 732 mmHg 66%
01:00 +16°C° 0.1 mm 1 mps 732 mmHg 70%
02:00 +15°C° 0.1 mm 1 mps 732 mmHg 74%
03:00 +15°C° 0.1 mm 1 mps 732 mmHg 76%
04:00 +15°C° 0.1 mm 1 mps 732 mmHg 78%
05:00 +14°C° 0.1 mm 1 mps 732 mmHg 81%
06:00 +14°C° 0.3 mm 2 mps 733 mmHg 79%
07:00 +13°C° 0.3 mm 3 mps 733 mmHg 76%
08:00 +13°C° 0.3 mm 4 mps 734 mmHg 74%
09:00 +14°C° 0.1 mm 3 mps 734 mmHg 69%
10:00 +16°C° 0.1 mm 3 mps 734 mmHg 65%
11:00 +17°C° 0.1 mm 3 mps 734 mmHg 60%
12:00 +18°C° 0 mm 3 mps 734 mmHg 56%
13:00 +19°C° 0 mm 3 mps 734 mmHg 52%
14:00 +20°C° 0 mm 4 mps 734 mmHg 48%
15:00 +20°C° 0 mm 4 mps 734 mmHg 46%
16:00 +20°C° 0 mm 4 mps 734 mmHg 45%
17:00 +20°C° 0 mm 4 mps 734 mmHg 43%
18:00 +17°C° 0 mm 5 mps 735 mmHg 46%
19:00 +16°C° 0 mm 5 mps 736 mmHg 49%
20:00 +15°C° 0 mm 5 mps 736 mmHg 52%
21:00 +13°C° 0 mm 5 mps 736 mmHg 55%
22:00 +12°C° 0 mm 4 mps 737 mmHg 58%
23:00 +10°C° 0 mm 3 mps 737 mmHg 61%

22 April, Thursday

Time Temperature Precipitation Wind Pressure Humidity
00:00 +10°C° 0 mm 3 mps 737 mmHg 62%
01:00 +9°C° 0 mm 3 mps 737 mmHg 63%
02:00 +8°C° 0 mm 3 mps 737 mmHg 64%
03:00 +8°C° 0 mm 3 mps 737 mmHg 64%
04:00 +7°C° 0 mm 2 mps 738 mmHg 65%
05:00 +7°C° 0 mm 2 mps 738 mmHg 65%
06:00 +8°C° 0 mm 3 mps 738 mmHg 61%
07:00 +8°C° 0 mm 3 mps 738 mmHg 56%
08:00 +8°C° 0 mm 4 mps 739 mmHg 52%
09:00 +10°C° 0 mm 4 mps 739 mmHg 48%
10:00 +12°C° 0 mm 3 mps 739 mmHg 45%
11:00 +13°C° 0 mm 3 mps 739 mmHg 41%
12:00 +16°C° 0 mm 3 mps 738 mmHg 39%
13:00 +17°C° 0 mm 4 mps 738 mmHg 36%
14:00 +18°C° 0 mm 4 mps 738 mmHg 34%
15:00 +19°C° 0 mm 4 mps 738 mmHg 33%
16:00 +19°C° 0 mm 3 mps 738 mmHg 33%
17:00 +19°C° 0 mm 3 mps 738 mmHg 32%
18:00 +18°C° 0 mm 3 mps 738 mmHg 36%
19:00 +16°C° 0 mm 2 mps 738 mmHg 40%
20:00 +15°C° 0 mm 2 mps 738 mmHg 44%
21:00 +14°C° 0 mm 2 mps 738 mmHg 47%
22:00 +13°C° 0 mm 2 mps 738 mmHg 51%
23:00 +12°C° 0 mm 2 mps 738 mmHg 54%
Show more